Regional Weather Roundup
Issued by NWS

Home | Current Version | Previous Version | Graphics & Text | Print | Product List | Glossary On
Versions: 1 2 3 4 5 6 7 8 9 10 11 12 13 14 15 16 17 18 19 20 21 22 23 24 25 26 27 28 29 30 31 32 33 34 35 36 37 38 39 40 41 42 43 44 45 46 47 48 49 50
000
ASUS43 KDMX 020107
RWRIA

WEATHER ROUNDUP FOR IOWA
NATIONAL WEATHER SERVICE DES MOINES IA
800 PM CDT FRI AUG 01 2014

NOTE: "FAIR" INDICATES FEW OR NO CLOUDS BELOW 12,000 FEET WITH NO
SIGNIFICANT WEATHER AND/OR OBSTRUCTIONS TO VISIBILITY.

* - THESE STATIONS ARE NOT NWS STATIONS...THUS NOT UNDER NWS
QUALITY CONTROL.  THEY ALSO DO NOT REPORT WEATHER SUCH
AS PRECIPITATION OR FOG.

IAZ001>003-012>014-020>022-031>034-043>046-020200-
   NORTHWEST IOWA

CITY           SKY/WX    TMP DP  RH WIND       PRES   REMARKS
CARROLL *      CLEAR     73  66  78 E3        30.07S
CHEROKEE *     PTCLDY    77  61  57 CALM      30.08S
DENISON *      CLEAR     77  66  69 CALM      30.06S
LE MARS *      CLEAR     77  63  61 CALM      30.08S
ORANGE CITY *  CLEAR     79  63  57 CALM      30.09S HX  80
SHELDON *      CLEAR     75  68  78 CALM      30.08S
SIOUX CITY     PTCLDY    79  60  52 E5        30.07S HX  80
SPENCER        CLEAR     78  62  57 CALM      30.08S HX  80
STORM LAKE *   CLEAR     75  66  73 CALM      30.09S
$$

IAZ055>058-069>071-079>083-090>094-020200-
   SOUTHWEST IOWA

CITY           SKY/WX    TMP DP  RH WIND       PRES   REMARKS
ATLANTIC *     CLEAR     77  64  65 CALM      30.06S
AUDUBON *      CLEAR     79  70  73 CALM      30.09S HX  81
CLARINDA *     CLEAR     77  68  73 CALM      30.07S
COUNCIL BLFS * CLEAR     77  66  69 CALM      30.07R
CRESTON *      CLOUDY    77  64  65 CALM      30.08R
HARLAN  *      CLEAR     75  66  73 CALM      30.11R
LAMONI         CLEAR     76  64  66 CALM      30.07S
RED OAK *      CLEAR     77  66  69 CALM      30.07R
SHENANDOAH *   CLEAR     77  66  69 E5        30.07R
$$

IAZ047>049-059>061-072>074-084-020200-
   CENTRAL IOWA

CITY           SKY/WX    TMP DP  RH WIND       PRES   REMARKS
AMES           CLEAR     76  63  64 SE3       30.06S
ANKENY *       CLEAR     75  63  64 CALM      30.06S
CHARITON *     CLEAR     75  64  69 NE3       30.07S
DES MOINES     PTCLDY    79  58  48 E5        30.06R HX  80
GRINNELL*      CLEAR     73  64  73 CALM      30.08S
KNOXVILLE *    CLEAR     77  59  53 CALM      30.06R
MARSHALLTOWN   CLEAR     78  63  59 CALM      30.06S HX  80
PELLA *        CLEAR     75  61  60 CALM      30.08R
PERRY *          N/A     73  66  78 CALM      30.07S
$$

IAZ004>006-015-016-023>025-035-036-020200-
   NORTH CENTRAL IOWA

CITY           SKY/WX    TMP DP  RH WIND       PRES   REMARKS
ALGONA *       CLEAR     75  64  69 NE3       30.08S
CLARION *      CLEAR     75  68  78 CALM      30.08R
ESTHERVILLE    CLEAR     75  62  64 CALM      30.08S
FORT DODGE *   CLEAR     75  64  69 CALM      30.08S
MASON CITY     CLEAR     75  66  73 CALM      30.09R
FOREST CITY *  CLEAR     77  63  61 CALM      30.08S
IOWA FALLS *     N/A     77  61  57 CALM      30.09S
$$

IAZ007>011-017>019-026>030-037>042-050>054-066-020200-
   NORTHEAST IOWA

CITY           SKY/WX    TMP DP  RH WIND       PRES   REMARKS
CEDAR RAPIDS   PTCLDY    76  68  76 CALM      30.06R
CHARLES CITY * CLEAR     75  64  69 E3        30.09R
CLINTON *      PTCLDY    75  64  69 CALM      30.11R
DECORAH *      CLEAR     73  63  68 CALM      30.08R
DUBUQUE        CLEAR     75  61  61 CALM      30.08S
MONTICELLO *   PTCLDY    73  66  78 CALM      30.07S
OELWEIN *      CLEAR     75  68  78 NW5       30.09R
WATERLOO       CLEAR     77  62  59 W3        30.06R
$$

IAZ064-065-067-068-078-020200-
   EAST CENTRAL IOWA

CITY           SKY/WX    TMP DP  RH WIND       PRES   REMARKS
DAVENPORT      MOCLDY    77  65  66 CALM      30.09R
IOWA CITY      PTCLDY    78  61  55 NE6       30.08R HX  80
MT. PLEASANT * PTCLDY    75  64  69 N7        30.07R
MUSCATINE *    CLEAR     77  64  65 CALM      30.06S
QUAD CITIES    MOCLDY    72  67  84 W3        30.06S
$$

IAZ062-063-075>077-085>089-095>099-020200-
   SOUTHEAST IOWA

CITY           SKY/WX    TMP DP  RH WIND       PRES   REMARKS
BURLINGTON     TSTM      73  63  70 VRB3G25   30.06R
FAIRFIELD *    CLEAR     73  66  78 N3        30.07R
FORT MADISON * CLEAR     75  70  83 CALM      30.08R
KEOKUK *       CLEAR     75  68  78 CALM      30.06R
OSKALOOSA *      N/A     73  66  78 CALM      30.07S
CENTERVILLE *  CLEAR     73  68  83 CALM      30.08S
OTTUMWA        CLEAR     77  63  61 NE5       30.06R
WASHINGTON *   CLEAR     75  68  78 NE3       30.07R
$$

ABBREVIATIONS USED IN REMARKS
   TC - TEMPERATURES IN CELSIUS
  WCI - WIND CHILL INDEX
   HX - HEAT INDEX
  VSB - VISIBILITY
$$




USA.gov is the U.S. government's official web portal to all federal, state and local government web resources and services.